This is the latest recevied weather packets stored in our database for station/object KQ4UPF. If no packets are shown the sender has not sent any weather packets the latest 10 day(s).
| Time | Temp. | Humidity | Pressure | Rain* | Wind** | Luminosity | Snow |
|---|---|---|---|---|---|---|---|
| 1777741106 | 18.33° C | 41% | 1017 hPa | 0 mm | - | 955 W/m² | - |
| 1777740804 | 18.33° C | 38% | 1017.4 hPa | 0 mm | - | 814 W/m² | - |
| 1777740501 | 17.78° C | 42% | 1017.3 hPa | 0 mm | - | 789 W/m² | - |
| 1777740198 | 17.78° C | 44% | 1017.4 hPa | 0 mm | - | 990 W/m² | - |
| 1777739894 | 17.22° C | 43% | 1017.2 hPa | 0 mm | - | 738 W/m² | - |
| 1777739590 | 17.22° C | 45% | 1017.3 hPa | 0 mm | - | 651 W/m² | - |
| 1777739288 | 17.22° C | 46% | 1017.5 hPa | 0 mm | - | 971 W/m² | - |
| 1777738985 | 17.22° C | 45% | 1017.2 hPa | 0 mm | - | 940 W/m² | - |
| 1777738681 | 17.78° C | 44% | 1017.3 hPa | 0 mm | - | 688 W/m² | - |
| 1777738377 | 17.22° C | 52% | 1017.5 hPa | 0 mm | - | 718 W/m² | - |
| 1777738075 | 17.22° C | 44% | 1017.4 hPa | 0 mm | - | 869 W/m² | - |
| 1777737774 | 17.22° C | 44% | 1017.4 hPa | 0 mm | - | 856 W/m² | - |
| 1777737473 | 17.22° C | 47% | 1017.4 hPa | 0 mm | - | 829 W/m² | - |
| 1777737170 | 16.67° C | 47% | 1017.7 hPa | 0 mm | - | 860 W/m² | - |
| 1777736866 | 17.22° C | 43% | 1017.4 hPa | 0 mm | - | 629 W/m² | - |
| 1777736252 | 16.11° C | 46% | 1017.4 hPa | 0 mm | - | 470 W/m² | - |
| 1777735949 | 15.56° C | 44% | 1017.6 hPa | 0 mm | - | 393 W/m² | - |
| 1777735646 | 15.56° C | 47% | 1017.4 hPa | 0 mm | - | 351 W/m² | - |
| 1777735344 | 15.56° C | 46% | 1017.5 hPa | 0 mm | - | 336 W/m² | - |
| 1777735041 | 15.56° C | 47% | 1017.3 hPa | 0 mm | - | 365 W/m² | - |
| 1777734738 | 15.56° C | 48% | 1017.4 hPa | 0 mm | - | 351 W/m² | - |
| 1777734436 | 15.56° C | 47% | 1017.4 hPa | 0 mm | - | 335 W/m² | - |
| 1777734132 | 15.56° C | 53% | 1017.2 hPa | 0 mm | - | 334 W/m² | - |
| 1777733828 | 15.56° C | 50% | 1017.2 hPa | 0 mm | - | 373 W/m² | - |
| 1777733525 | 15° C | 50% | 1017.2 hPa | 0 mm | - | 372 W/m² | - |
* Rain latest hour (hover to see other rain measurements)
** Current wind speed in m/s (hover to see current wind gust speed)